Regional Weather Roundup
Issued by NWS

Home | Current Version | Previous Version | Graphics & Text | Print | Product List | Glossary On
Versions: 1 2 3 4 5 6 7 8 9 10 11 12 13 14 15 16 17 18 19 20 21 22 23 24 25 26 27 28 29 30 31 32 33 34 35 36 37 38 39 40 41 42 43 44 45 46 47 48 49 50
000
ASUS43 KFSD 272202
RWRSD

WEATHER ROUNDUP FOR SOUTH DAKOTA
NATIONAL WEATHER SERVICE SIOUX FALLS SD
500 PM CDT MON APR 27 2015

NOTE: "FAIR" INDICATES FEW OR NO CLOUDS BELOW 12,000 FEET WITH NO
SIGNIFICANT WEATHER AND/OR OBSTRUCTIONS TO VISIBILITY.


SDZ001>005-009-010-012>017-272300-
NORTHWEST AND NORTH CENTRAL SOUTH DAKOTA

CITY           SKY/WX    TMP DP  RH WIND       PRES   REMARKS
BUFFALO          N/A     46  36  68 NW10      30.26S
FAITH            N/A     47  41  80 N9        30.30F
MOBRIDGE       CLOUDY    53  42  66 NW17      30.24R
$$

SDZ012>016-024>037-041>051-057-063-072>074-272300-
SOUTHWEST AND SOUTH CENTRAL SOUTH DAKOTA

CITY           SKY/WX    TMP DP  RH WIND       PRES   REMARKS
RAPID CTY ARPT LGT RAIN  47  43  86 N14       30.31S
PIERRE         LGT RAIN  67  42  40 NW23      30.21S
CUSTER         CLOUDY    42  38  85 W8        30.29S
ELLSWORTH AFB  LGT RAIN  46  44  92 N15       30.30
PHILIP         MOSUNNY   59  41  51 N17G25    30.26F
PINE RIDGE     PTSUNNY   58  42  55 N13       30.27F
WINNER         FAIR      71  29  21 NE7       30.18F
$$

SDZ004>011-016>023-039-040-272300-
NORTHEAST SOUTH DAKOTA

CITY           SKY/WX    TMP DP  RH WIND       PRES   REMARKS
ABERDEEN       MOSUNNY   73  26  17 CALM      30.16F
WATERTOWN      MOSUNNY   68  22  17 W6        30.17F
BROOKINGS      MOSUNNY   68  23  18 N6        30.18S
SISSETON         N/A     69  18  14 VRB6      30.16F
$$

SDZ017-020-022-023-036>040-048>070-272300-
SOUTHEAST SOUTH DAKOTA

CITY           SKY/WX    TMP DP  RH WIND       PRES   REMARKS
SIOUX FALLS    PTSUNNY   69  25  19 NW7       30.16F
HURON          SUNNY     71  20  14 MISG      30.16F
MITCHELL       SUNNY     70  24  17 VRB3      30.17F
YANKTON        SUNNY     70  28  21 NE3       30.15S
$$

ABBREVIATIONS USED IN REMARKS
   TC - TEMPERATURE IN CELSIUS
  WCI - WIND CHILL INDEX
   HX - HEAT INDEX
  VSB - VISIBILITY



USA.gov is the U.S. government's official web portal to all federal, state and local government web resources and services.